Orbital Elements at Epoch 2459200.5 (2020-Dec-17.0) TDB
Reference: JPL 19 (heliocentric ecliptic J2000)
Element | Value | Uncertainty (1-sigma) | Units |
e | .0942147492165922 | 5.2879e-08 | |
a | 3.163866924826986 | 2.8983e-08 | au |
q | 2.865783995949741 | 1.6632e-07 | au |
i | 8.503871226489192 | 6.0254e-06 | deg |
node | 217.3214011940717 | 3.7027e-05 | deg |
peri | 182.3173236009677 | 4.8397e-05 | deg |
M | 175.6825064734902 | 3.3505e-05 | deg |
tp | 2458197.382614136912 (2018-Mar-19.88261414) | 0.00018475 | TDB |
period | 2055.539086728612 5.63 | 2.8245e-05 7.733e-08 | d yr |
n | .1751365383048686 | 2.4065e-09 | deg/d |
Q | 3.461949853704231 | 3.1714e-08 | au |
|
| | Orbit Determination Parameters
Additional Information
|